Weather in Shikovka

Russia / Ulyanovsk Oblast     52°36′10″N   47°24′14″E
temp.,
°C
wind,
m/s
gust,
m/s
humid.,
%
clouds,
%
prec.,
mm/h
press.,
hPa
HPBL,
m
11 april, sun
sun1101:00+5nnw3598100 0.0 102199
04:00+5n3398100 0.0 102270
07:00+5n3499100 0.0 1024105
10:00+7nne3493100 0.0 1025167
13:00+13ne3474100 0.0 1026367
16:00+14nne4571100 0.0 1026328
19:00+11nne5886100 0.0 1027206
22:00+9nne4991100 0.0 1028202
12 april, mon
mon1201:00+8ne3691100 0.0 102990
04:00+8ne338999 0.0 103032
07:00+8nne32885 0.0 103035
10:00+14e465951 0.0 1031364
13:00+18ese564695 0.0 1031736
16:00+19ese5646100 0.0 1031975
19:00+15e3661100 0.0 103199
22:00+12ese3468100 0.0 103257
13 april, tue
tue1301:00+10e227362 0.0 103211
04:00+8ene227573 0.0 103210
07:00+8ene227260 0.0 103313
10:00+13ese354836 0.0 1033424
13:00+17se56395 0.0 1031898
16:00+18se45330 0.0 10301303
19:00+15ese335057 0.0 102946
22:00+11ese226252 0.0 103021
14 april, wed
wed1401:00+9e226995 0.0 103011
04:00+8ene227375 0.0 102910
07:00+7ne227271 0.0 102918
10:00+13ese46465 0.0 1028422
13:00+17ese56382 0.0 1026900
16:00+18ese45320 0.0 10251210
19:00+15e34485 0.0 102354
22:00+11e22584 0.0 102413
15 april, thu
thu1501:00+10ene22685 0.0 102310
04:00+8ne22815 0.0 102211
07:00+8ne22855 0.0 102120
10:00+14ese34620 0.0 1020516
13:00+17ese44510 0.0 10181139
16:00+18se33461 0.0 10161515
19:00+16e22582 0.0 101520
22:00+13e11676 0.0 101410